Home > Weather > Adliswil > Past weeks

Flag for Switzerland Past Weather in Adliswil, Zurich, Switzerland — Yesterday and Last 2 Weeks

Now
64 °F

Mild.


Feels Like: 64 °F
Forecast: 51 / 67 °F
Wind: 3 mph from East

Location: Zuerich-Fluntern

Current Time: Jun 26, 2016 at 2:03:21 PM

Latest Report: Jun 26, 2016 at 1:00 PM


Visibility: N/A

Pressure: 30.09 "Hg

Humidity: 55%

Dew Point: 47 °F

Location of AdliswilLocation

Past Weather in Adliswil — Graph

°F

Adliswil Temperature Yesterday

Maximum temperature yesterday: 71 °F (at 3:00 PM)
Minimum temperature yesterday: 60 °F (at 11:00 PM)
Average temperature yesterday: 64 °F

High & Low Weather Summary for the Past Weeks

 TemperatureHumidityPressure
High90 °F (Jun 23, 6:00 PM)97% (Jun 17, 12:00 AM)30.28 "Hg (Jun 17, 12:00 AM)
Low48 °F (Jun 17, 6:00 AM)38% (Jun 24, 3:00 PM)29.59 "Hg (Jun 16, 5:00 AM)
Average61 °F82%29.96 "Hg
* Reported Jun 11 12:00 PM — Jun 26 12:00 PM, Adliswil, Weather by CustomWeather, © 2016

Note: Actual official high and low records may vary slightly from our data, if they occured in-between our weather recording intervals... More about our weather records

Advertising

Adliswil Weather History for the Previous 24 Hours

Scroll right to see more
 ConditionsComfort  
Time TempWeatherWind HumidityBarometerVisibility
12:00 PM
Sun, Jun 26
63 °FMild.2 mph65%30.09 "HgN/A
11:00 AM62 °FCool.3 mph79%30.09 "HgN/A
10:00 AM59 °FCool.2 mph83%30.11 "HgN/A
9:00 AM58 °FCool.2 mph90%30.11 "HgN/A
8:00 AM57 °FCool.No wind94%30.11 "HgN/A
7:00 AM57 °FCool.1 mph95%30.11 "HgN/A
6:00 AM56 °FCool.3 mph94%30.09 "HgN/A
5:00 AM56 °FCool.1 mph95%30.09 "HgN/A
4:00 AM57 °FCool.2 mph91%30.09 "HgN/A
3:00 AM57 °FCool.3 mph92%30.10 "HgN/A
2:00 AM58 °FCool.5 mph93%30.11 "HgN/A
1:00 AM58 °FCool.5 mph95%30.11 "HgN/A
12:00 AM59 °FCool.3 mph94%30.11 "HgN/A
11:00 PM
Sat, Jun 25
60 °FCool.6 mph96%30.09 "HgN/A
10:00 PM60 °FCool.3 mph97%30.07 "HgN/A
9:00 PM60 °FCool.2 mph96%30.04 "HgN/A
8:00 PM61 °FOvercast.3 mph96%30.03 "HgN/A
7:00 PM64 °FMild.6 mph94%30.01 "HgN/A
6:00 PM63 °FMild.5 mph95%30.00 "HgN/A
5:00 PM64 °FMild.6 mph93%30.00 "HgN/A
4:00 PM63 °FMild.13 mph89%30.00 "HgN/A
3:00 PM71 °FMild.6 mph74%29.92 "HgN/A
2:00 PM70 °FMild.5 mph79%29.91 "HgN/A
Weather by CustomWeather, © 2016

See weather overviewHow to use our weather pages